This is the latest recevied weather packets stored in our database for station/object W1SCW. If no packets are shown the sender has not sent any weather packets the latest 1 day(s).
| Time | Temp. | Humidity | Pressure | Rain* | Wind** | Luminosity | Snow |
|---|---|---|---|---|---|---|---|
| 1777995158 | 25.56° C | 85% | 1007.9 hPa | 0 mm | 0.89 m/s, 137° | 234 W/m² | - |
| 1777994855 | 25° C | 87% | 1007.8 hPa | 0 mm | 1.79 m/s, 177° | 196 W/m² | - |
| 1777994551 | 25° C | 87% | 1007.7 hPa | 0 mm | 1.79 m/s, 154° | 131 W/m² | - |
| 1777994246 | 25° C | 88% | 1007.7 hPa | 0 mm | 2.24 m/s, 190° | 151 W/m² | - |
| 1777993944 | 25° C | 88% | 1007.8 hPa | 0 mm | 1.79 m/s, 200° | 111 W/m² | - |
| 1777993640 | 24.44° C | 87% | 1007.8 hPa | 0 mm | 1.34 m/s, 179° | 59 W/m² | - |
| 1777993338 | 24.44° C | 88% | 1007.7 hPa | 0 mm | 0.89 m/s, 201° | 103 W/m² | - |
| 1777993046 | 24.44° C | 87% | 1007.9 hPa | 0 mm | 1.34 m/s, 182° | 95 W/m² | - |
| 1777992736 | 25° C | 87% | 1007.7 hPa | 0 mm | 1.79 m/s, 162° | 64 W/m² | - |
| 1777992433 | 25° C | 87% | 1007.6 hPa | 0 mm | 1.34 m/s, 190° | 130 W/m² | - |
| 1777992132 | 25° C | 87% | 1007.5 hPa | 0 mm | 1.34 m/s, 154° | 163 W/m² | - |
| 1777991828 | 25° C | 87% | 1007.7 hPa | 0 mm | 2.24 m/s, 194° | 181 W/m² | - |
| 1777991526 | 25° C | 88% | 1007.8 hPa | 0 mm | 1.34 m/s, 144° | 165 W/m² | - |
| 1777991222 | 24.44° C | 88% | 1007.6 hPa | 0 mm | 0.89 m/s, 152° | 173 W/m² | - |
| 1777990920 | 24.44° C | 88% | 1007.7 hPa | 0 mm | 0.89 m/s, 184° | 162 W/m² | - |
| 1777990618 | 24.44° C | 88% | 1007.8 hPa | 0 mm | 1.34 m/s, 122° | 138 W/m² | - |
| 1777990314 | 24.44° C | 88% | 1007.5 hPa | 0 mm | 1.34 m/s, 144° | 164 W/m² | - |
| 1777990005 | 25° C | 88% | 1007.4 hPa | 0 mm | 1.34 m/s, 179° | 183 W/m² | - |
| 1777989702 | 24.44° C | 88% | 1007.3 hPa | 0 mm | 1.34 m/s, 177° | 173 W/m² | - |
| 1777989398 | 24.44° C | 88% | 1007.5 hPa | 0 mm | 1.79 m/s, 140° | 247 W/m² | - |
| 1777989095 | 24.44° C | 89% | 1007.6 hPa | 0 mm | 2.68 m/s, 188° | 237 W/m² | - |
| 1777988791 | 23.89° C | 89% | 1007.5 hPa | 0 mm | 0 m/s | 178 W/m² | - |
| 1777988489 | 23.89° C | 90% | 1007.8 hPa | 0 mm | 1.79 m/s, 172° | 156 W/m² | - |
| 1777988186 | 23.89° C | 90% | 1007.7 hPa | 0 mm | 1.79 m/s, 176° | 94 W/m² | - |
| 1777987881 | 23.89° C | 91% | 1007.9 hPa | 0 mm | 0.89 m/s, 192° | 79 W/m² | - |
* Rain latest hour (hover to see other rain measurements)
** Current wind speed in m/s (hover to see current wind gust speed)